www.pogodaiklimat.ru

Погода и климат >> Архив погоды >> Китай >> Нинся-Хуэйский автономный район >> Яньчи


ПОГОДА в Яньчи

  • Прогноз погоды в Яньчи
  • Монитор погоды в Яньчи

АРХИВ ПОГОДЫ в Яньчи

Время (UTC), дата Ветер
(напр.,м/с)
 
Видим.   Явления Облачность Т
(С)
Тd
(С)
f
(%)
Тe
(С)
Тes
(С)
Комфортность P
(гПа)
Po
(гПа)
Тmin
(С)
Tmax
(С)
R
(мм)
R24
(мм)
S
(см)
03 12.03 В 2 30 км ясно +3.2 -15.4 24 +1 +12 опасность
простуды
1024.5 866.3
06 12.03 С 2 30 км 3/3
[]
+9.0 -15.5 16 +8 +16 1020.3 865.0 -8.2
09 12.03 СВ 2 30 км ясно +9.6 -17.5 13 +9 +12 1020.9 866.6
12 12.03 В 2 30 км ясно +4.6 -17.1 19 +3 +3 1025.1 866.8
15 12.03 СЗ 2 30 км н/о -0.5 -18.1 25 -3 -3 1026.3 865.9
18 12.03 З 1 30 км ?/? -3.3 -18.4 30 -5 -5 1026.7 870.2 +10.0
21 12.03 СЗ 1 25 км н/о -5.7 -17.8 38 -7 -7 1026.6 863.3
00 13.03 штиль 0 11 км ясно -6.0 -16.0 45 -6 -5 1029.6 870.8
03 13.03 ЮВ 1 30 км 9/9
[]
+7.6 -18.2 14 +8 +9 1027.7 871.3
06 13.03 З 4 30 км 9/9
[]
+10.8 -17.5 12 +9 +10 1026.2 870.2 -7.5
09 13.03 З 3 30 км 9/9
[]
+10.2 -18.0 12 +9 +9 1027.0 872.1
12 13.03 З 2 20 км ясно +5.7 -18.9 15 +4 +4 1030.6 871.9
15 13.03 З 3 16 км н/о +0.6 -18.7 22 -3 -3 1028.8 868.6
18 13.03 С 2 30 км ?/? -0.7 -19.8 22 -3 -3 1028.1 872.5 +11.3
21 13.03 СВ 1 30 км н/о -2.9 -16.2 35 -4 -4 1028.0 866.0
00 14.03 С 1 18 км 3/3
[]
-4.4 -16.9 37 -6 -5 1031.1 872.8
03 14.03 С 3 29 км ясно +8.8 -19.1 12 +7 +16 опасность
простуды
1030.0 873.9
06 14.03 С 4 30 км ясно +10.9 -20.8 9 +9 +18 1028.1 872.5 -6.1
09 14.03 С 4 30 км ясно +10.7 -18.6 11 +9 +11 1028.1 873.2
12 14.03 СЗ 1 30 км ясно +4.5 -19.9 15 +4 +4 1033.4 874.4
15 14.03 З 1 30 км н/о +0.6 -18.7 22 0 0 1032.3 871.5
18 14.03 штиль 0 17 км ?/? -3.1 -16.7 34 -3 -3 1031.9 875.1 +11.6
21 14.03 штиль 0 26 км н/о -7.5 -18.5 41 -8 -8 1032.1 866.9
00 15.03 В 1 12 км ясно -5.3 -15.4 45 -7 -6 1034.1 874.8
03 15.03 Ю 2 30 км ясно +9.0 -18.0 13 +8 +19 опасность
простуды
1030.0 874.0
06 15.03 ЮЗ 3 30 км ясно +13.4 -21.8 7 +13 +23 1025.2 870.1 -8.3
09 15.03 Ю 2 30 км ясно +13.6 -25.4 5 +14 +16 1023.0 870.3
12 15.03 штиль 0 9000 м ясно +6.9 -21.6 11 +7 +7 1025.1 867.8
15 15.03 В 1 27 км н/о +3.1 -18.3 19 +3 +3 1023.3 865.3
18 15.03 З 1 23 км ?/? -0.8 -19.4 23 -2 -2 1022.9 868.7 +14.5
21 15.03 З 1 30 км н/о -0.9 -22.3 18 -2 -2 1022.0 862.0
00 16.03 З 1 30 км ясно -0.5 -21.9 18 -1 0 1025.3 869.2
03 16.03 С 2 30 км ясно +10.3 -17.9 12 +10 +20 опасность
простуды
1024.8 870.2
06 16.03 С 2 30 км ясно +14.6 -19.3 8 +15 +27 опасность
простуды
1023.0 869.1 -2.0
09 16.03 С 2 30 км 3/3
[]
+14.8 -20.7 7 +15 +17 1020.6 868.9
12 16.03 СЗ 1 17 км ясно +7.5 -21.1 11 +8 +8 1024.8 868.9
15 16.03 З 1 30 км н/о +3.5 -22.4 13 +3 +3 1023.8 865.9
18 16.03 штиль 0 22 км ?/? -1.1 -20.7 21 -1 -1 1023.5 869.5 +15.5
21 16.03 З 1 28 км н/о -3.4 -20.2 26 -5 -5 1023.0 861.5
00 17.03 штиль 0 15 км 9/9
[]
-3.3 -18.4 30 -3 -3 1025.4 868.7
03 17.03 Ю 1 14 км 9/9
[]
+5.9 -18.0 16 +6 +7 1023.7 867.1
06 17.03 З 2 30 км 9/9
[]
+11.4 -21.7 8 +11 +12 1021.0 866.5 -3.9
09 17.03 С 1 30 км 9/9
[]
+11.6 -9.4 22 +12 +12 1020.4 867.1
12 17.03 СЗ 2 30 км 9/9
[]
+8.5 -5.0 38 +7 +7 1022.3 866.3
15 17.03 ЮЗ 2 29 км н/о +6.3 -1.6 57 +4 +4 1020.4 864.5
18 17.03 З 3 20 км ?/? +3.7 -1.5 69 0 0 1017.7 864.9 +12.7
21 17.03 ЮЗ 2 14 км н/о +2.3 -1.1 78 -1 -1 1016.1 858.8
00 18.03 ЮЗ 2 19 км ясно +3.6 -3.4 60 +1 +2 1016.8 863.4
03 18.03 З 5 16 км ясно +12.9 -8.3 22 +11 +17 1014.2 862.5
06 18.03 З 4 18 км ясно +16.3 -15.4 10 +16 +24 1011.4 860.8 +1.6
09 18.03 З 3 29 км ясно +17.3 -15.9 9 +17 +20 1008.6 859.9
12 18.03 З 1 16 км ясно +10.9 -13.2 17 +11 +11 1009.5 857.8
15 18.03 С 1 11 км н/о +4.1 -14.7 24 +4 +4 1009.0 853.7
18 18.03 СВ 1 11 км ?/? +0.4 -13.6 34 -1 -1 1007.6 856.7 +17.6
21 18.03 В 1 23 км н/о +5.4 -10.0 32 +5 +5 1003.3 849.5
00 19.03 ЮВ 1 16 км 10/10
[]
+8.1 -6.4 35 +8 +8 1005.0 855.1

 

Местоположение метеостанции Яньчи (Нинся-Хуэйский автономный район, Китай): широта 37.80 долгота 107.38 высота над уровнем моря 1356 м.

В архиве по умолчанию представлена погода в Яньчи за последнюю неделю. Архивные данные за месяц целиком и за предыдущие месяцы, начиная с января 2011 года, Вы можете получить, выбрав интересующий диапазон дат из раскрывающегося списка и нажав кнопку "Ввод!".


*Определитесь, кто Вы:
робот инопланетянин человек

Внимание! Время в таблицах - всемирное. Для получения местного времени необходимо прибавить поправку, которая равна 8 ч.

Смотрите также архив погоды в соседних городах и на ближайших метеорологических станциях:

Погода в Иньчуане (Нинся-Хуэйский автономный район, Китай) (127 км)
Погода в Отог-Ци (Внутренняя Монголия, Китай) (154 км)
Погода в Чжуннине (Нинся-Хуэйский автономный район, Китай) (154 км)
Погода в Юйлине (Гуанси-Чжуанский автономный район, Китай) (209 км)
Погода в Яньане (Шэньси, Китай) (230 км)
Погода в Цинъяне (Ганьсу, Китай) (231 км)
Погода в Пинляне (Ганьсу, Китай) (258 км)
Погода в Джартае (Внутренняя Монголия, Китай) (262 км)
Погода в Дуншэне (Внутренняя Монголия, Китай) (319 км)
Погода в Лиши (Шаньси, Китай) (329 км)

Пояснения к столбцам:

Ветер - указаны скорость ветра в м/с - средняя за 10 мин, порывы в срок и между сроками (в фигурных скобках) и направление, откуда дует ветер: С - северный, СВ - северо-восточный, В - восточный, ЮВ - юго-восточный, Ю - южный, ЮЗ - юго-западный, З - западный, СЗ - северо-западный.
Видимость - горизонтальная дальность видимости в метрах или километрах. При видимости от 1 до 10 км при отсутствии осадков обычно наблюдается дымка, при ухудшении видимости до 1 км и менее - туман. В сухую погоду видимость может ухудшаться дымом, пылью или мглою.
Явления - указаны атмосферные явления, наблюдавшиеся в срок или в последний час перед сроком; фигурными скобками обозначены явления, наблюдавшиеся между сроками (за 1-3 часа до срока); квадратными скобками обозначены град или гололедные отложения с указанием их диаметра в мм.
Облачность - указаны через наклонную черту общая и нижняя облачность в баллах и высота нижней границы облаков в метрах; квадратными скобками обозначены формы облаков: Ci - перистые, Cs - перисто-слоистые, Cc - перисто-кучевые, Ac - высококучевые, As - высокослоистые, Sc - слоисто-кучевые, Ns - слоисто-дождевые, Cu - кучевые, Cb - кучево-дождевые. Подробнее классификацию облаков см. в Атласе облаков (PDF).
T - Температура воздуха - температура, измеренная на высоте 2 м над землей.
Td - Температура точки росы - температура, при понижении до которой содержащийся в воздухе водяной пар достигнет насыщения.
f - Относительная влажность воздуха - влажноcть воздуха, измеренная на высоте 2 м над землей.
Te - Эффективная температура - температура, которую ощущает одетый по сезону человек в тени. Характеристика душности погоды. При расчете учитывается влияние влажности воздуха и скорости ветра на теплоощущения человека.
Tes - Эффективная температура на солнце - температура, которую ощущает человек, с поправкой на солнечный нагрев. Характеристика знойности погоды. Зависит от высоты солнца над горизонтом, облачности и скорости ветра. Ночью, в пасмурную погоду, а также при ветре 12 м/с и более поправка равна нулю.
P - Атмосферное давление - приведенное к уровню моря атмосферное давление.
Po - Атмосферное давление - измеренное на уровне метеостанции атмосферное давление.
Tmin - Минимальная температура - минимум температуры воздуха на высоте 2 м над землей.
Tmax - Максимальная температура - максимум температуры воздуха на высоте 2 м над землей.
R - Количество осадков - Количество выпавших осадков за период времени, мм. При наведении курсора мыши на число - период времени, за который выпало указанное количество осадков.
R24 - Количество осадков - Количество выпавших осадков за 24 часа, мм.
S - Снежный покров - Высота снежного покрова, см. При наведении курсора мыши на число - состояние снежного покрова и степень покрытия местности в баллах.